{"data":{"norad_id":68130,"epoch":"2026-05-25T03:22:51.587904Z","epoch_age_seconds":66346,"freshness":"FRESH","line1":"1 68130U 26047B   26145.14087486 -.00000091  00000+0  72245-4 0  9997","line2":"2 68130  50.0011 138.9715 0000240 355.5278   4.5591 13.29330593  9991","mean_motion":13.29330593,"eccentricity":2.4e-5,"inclination_deg":50.0011,"raan_deg":138.9715,"arg_perigee_deg":355.5278,"mean_anomaly_deg":4.5591,"bstar":7.2245e-5,"rev_number":999,"period_min":108.32519823005,"perigee_km":1149.1085747879,"apogee_km":1149.4698912471,"semimajor_km":7527.4262330175,"source":"CELESTRAK","updated_at":"2026-05-25T13:38:07.575661Z"}}